SCP
0 0 0 0 0 0 0 0 0 0 0 0 0 0 0 0 0 0 0 0 0 0 0 0 0 0 0 0 0 0 0 0 0 0 0 0 0 0 0 0 0 0 0 0 0 0 0 0 0
0 0 0 0 0 0 0 0 0 0 0 0 0 0 0 0 0 0 0 0 0 0 0 0 0 0 0 0 0 0 0 0 0 0 0 0 0 0 0 0 0 0 0 0 0 0 0 0 0
0 0 0 0 0 0 0 0 0 0 0 0 0 0 0 0 0 0 0 0 0 0 0 0 0 0 0 0 0 0 0 0 0 0 0 0 0 0 0 0 0 0 0 0 0 0 0 0 0
0 0 0 0 0 0 0 0 0 0 0 0 0 0 0 0 0 0 0 0 0 0 0 0 0 0 0 0 0 0 0 0 0 0 0 0 0 0 0 0 0 0 0 0 0 0 0 0 0
0 0 0 0 0 0 0 0 0 0 0 0 0 0 0 0 0 0 0 0 0 0 0 0 0 0 0 0 0 0 0 0 0 0 0 0 0 0 0 0 0 0 0 0 0 0 0 0 0
0 0 0 0 0 0 0 0 0 0 0 0 0 0 0 0 0 0 0 0 0 0 0 0 0 0 0 0 0 0 0 0 0 0 0 0 0 0 0 0 0 0 0 0 0 0 0 0 0
0 0 0 0 0 0 0 0 0 0 0 0 0 0 0 0 0 0 0 0 0 0 0 0 0 0 0 0 0 0 0 0 0 0 0 0 0 0 0 0 0 0 0 0 0 0 0 0 0
0 0 0 0 0 0 0 0 0 0 0 0 0 0 0 0 0 0 0 0 0 0 0 0 0 0 0 0 0 0 0 0 0 0 0 0 0 0 0 0 0 0 0 0 0 0 0 0 0
0 0 0 0 0 0 0 0 0 0 0 0 0 0 0 0 0 0 0 0 0 0 0 0 0 0 0 0 0 0 0 0 0 0 0 0 0 0 0 0 0 0 0 0 0 0 0 0 0
0 0 0 0 0 0 0 0 0 0 0 0 0 0 0 0 0 0 0 0 0 0 0 0 0 0 0 0 0 0 0 0 0 0 0 0 0 0 0 0 0 0 0 0 0 0 0 0 0
0 0 0 0 0 0 0 0 0 0 0 0 0 0 0 0 0 0 0 0 0 0 0 0 0 0 0 0 0 0 0 0 0 0 0 0 0 0 0 0 0 0 0 0 0 0 0 0 0
0 0 0 0 0 0 0 0 0 0 0 0 0 0 0 0 0 0 0 0 0 0 0 0 0 0 0 0 0 0 0 0 0 0 0 0 0 0 0 0 0 0 0 0 0 0 0 0 0
0 0 0 0 0 0 0 0 0 0 0 0 0 0 0 0 0 0 0 0 0 0 0 0 0 0 0 0 0 0 0 0 0 0 0 0 0 0 0 0 0 0 0 0 0 0 0 0 0
0 0 0 0 0 0 0 0 0 0 0 0 0 0 0 0 0 0 0 0 0 0 0 0 0 0 0 0 0 0 0 0 0 0 0 0 0 0 0 0 0 0 0 0 0 0 0 0 0
0 0 0 0 0 0 0 0 0 0 0 0 0 0 0 0 0 0 0 0 0 0 0 0 0 0 0 0 0 0 0 0 0 0 0 0 0 0 0 0 0 0 0 0 0 0 0 0 0
0 0 0 0 0 0 0 0 0 0 0 0 0 0 0 0 0 0 0 0 0 0 0 0 0 0 0 0 0 0 0 0 0 0 0 0 0 0 0 0 0 0 0 0 0 0 0 0 0
0 0 0 0 0 0 0 0 0 0 0 0 0 0 0 0 0 0 0 0 0 0 0 0 0 0 0 0 0 0 0 0 0 0 0 0 0 0 0 0 0 0 0 0 0 0 0 0 0
0 0 0 0 0 0 0 0 -0 0 0 0 0 0 0 0 0 0 0 0 0 0 0 0 0 0 0 0 0 0 0 0 0 0 0 0 0 0 0 0 0 0 0 0 0 0 0 0 0
0 0 0 0 0 0 0 0 0 -0 0 0 0 0 0 0 0 0 0 0 0 0 0 0 0 0 0 0 0 0 0 0 0 0 0 0 0 0 0 0 0 0 0 0 0 0 0 0 0
0 0 0 0 0 0 0 0 0 0 0 0 0 0 -0 -0 -0 -0 0 0 0 0 0 0 0 0 0 0 0 0 0 0 0 0 0 0 0 0 0 0 0 0 0 0 0 0 0 0 0
0 0 0 0 0 0 0 0 -0 0 0 0 0 0 -0 -0 0 0 0 0 0 0 0 0 0 0 0 0 0 0 0 0 0 0 0 0 0 0 0 0 0 0 0 0 0 0 0 0 0
0 0 0 0 0 0 0 0 0 0 0 0 0 0 0 -0 0 0 0 0 0 0 0 0 0 0 0 0 -0 0 0 0 0 0 0 0 0 0 0 0 0 0 0 0 0 0 0 0 0
0 0 0 0 0 0 0 0 0 0 0 0 0 0 0 0 0 0 0 0 0 0 0 0 0 0 0 0 0 0 0 0 0 0 0 0 0 0 0 0 0 0 0 0 0 0 0 0 0
0 0 0 0 0 0 0 0 0 0 0 0 0 0 0 0 0 0 0 0 0 0 0 0 0 0 0 0 0 0 0 0 0 0 0 0 0 0 0 0 0 0 0 0 0 0 0 0 0
0 0 0 0 0 0 0 0 0 0 0 0 0 0 0 0 0 0 0 0 0 0 0 0 0 0 0 0 0 0 0 0 0 0 0 0 0 0 0 0 0 0 0 0 0 0 0 0 0
0 0 0 0 0 0 0 0 -0 -0 0 0 0 0 0 0 0 0 0 0 0 0 0 0 0 0 0 0 0 0 0 0 0 0 0 0 0 0 0 0 0 0 0 0 0 0 0 0 0
0 0 0 0 0 0 0 0 -0 -0 0 0 0 0 0 0 0 0 0 0 0 0 0 0 0 0 0 0 0 0 0 0 0 0 0 0 0 0 0 0 0 0 0 0 0 0 0 0 0
0 0 0 0 0 0 0 0 0 0 0 0 0 0 0 0 0 0 0 0 0 0 0 0 0 0 0 0 0 0 0 0 0 0 0 0 0 0 0 0 0 0 0 0 0 0 0 0 0
0 0 0 0 0 0 0 0 0 0 0 0 0 0 0 0 0 0 0 0 0 0 0 0 0 0 0 0 0 0 0 0 0 0 0 0 0 0 0 0 0 0 0 0 0 0 0 0 0
0 0 0 0 0 0 0 0 0 0 0 0 0 0 0 0 0 0 0 0 0 0 0 0 0 0 0 0 0 0 0 0 0 0 0 0 0 0 0 0 0 0 0 0 0 0 0 0 0
Wind_Speed
5 3 3 4 6 4 3 4 2 1 1 0 1 2 4 4 4 3 0 2 4 4 5 7 9 9 8 8 7 7 7 7 6 7 7 7 7 7 7 7 7 6 7 7 7 7 7 7 7
1 2 5 5 5 1 5 4 3 3 1 1 2 2 3 1 1 1 0 1 4 5 4 5 8 9 8 8 7 7 6 6 6 6 6 6 6 6 6 6 6 6 6 7 7 6 7 7 6
2 4 5 5 3 6 5 2 3 1 0 1 2 2 1 0 0 1 1 3 4 4 4 5 9 8 8 8 7 6 6 5 5 5 5 6 6 6 6 6 6 6 6 6 6 6 6 6 5
3 5 5 4 4 5 3 2 1 0 1 2 2 2 1 1 1 1 3 5 5 4 3 4 9 8 7 7 7 6 5 5 5 5 5 5 5 5 5 5 5 5 5 5 5 5 5 5 5
4 5 4 0 5 4 2 2 1 1 0 1 2 2 1 3 2 3 5 6 6 4 2 3 8 8 7 7 6 5 5 5 4 4 4 4 4 4 4 4 5 5 5 5 5 5 4 4 4
5 5 3 3 5 3 2 1 1 1 0 0 2 2 1 1 2 3 4 5 5 4 3 2 6 6 6 6 6 5 5 5 4 4 3 3 3 3 4 4 4 4 4 4 4 4 4 4 4
5 4 3 4 3 2 2 0 2 1 0 1 2 3 1 1 1 3 4 4 4 4 3 2 2 3 5 5 5 4 4 4 4 3 3 4 3 2 2 3 3 3 3 4 4 4 4 3 3
4 5 2 2 3 3 1 0 1 1 1 0 3 4 3 2 2 4 4 4 3 3 3 2 2 3 2 2 3 4 4 3 3 3 4 4 4 3 2 2 2 2 3 3 4 4 4 3 3
3 4 3 4 4 3 1 1 2 1 1 1 0 1 1 4 5 5 4 2 2 2 1 2 2 2 2 1 2 3 3 3 3 2 3 4 2 2 2 2 2 3 3 4 4 4 5 4 4
4 3 5 3 2 1 1 0 0 2 2 1 2 2 2 5 6 6 5 5 4 3 2 1 1 1 2 1 2 1 1 2 2 1 2 2 2 2 2 3 3 3 3 4 4 4 5 4 2
3 4 2 2 1 1 1 1 0 2 2 3 3 2 3 4 4 5 5 5 5 3 2 2 2 2 2 1 1 1 1 1 1 1 2 1 1 1 2 1 2 2 3 2 3 3 2 2 1
2 2 2 1 1 0 1 1 1 3 5 3 3 3 4 5 6 6 6 5 3 3 3 2 2 2 2 2 1 1 1 1 1 1 1 1 1 1 1 1 1 1 1 1 1 1 2 2 1
1 1 1 1 1 0 0 1 2 4 5 2 0 2 3 4 4 4 3 3 3 3 3 3 2 2 2 2 1 1 1 1 1 1 1 1 1 1 0 0 0 1 0 0 1 1 1 1 2
1 0 1 1 1 1 1 3 1 5 2 0 1 2 3 4 4 3 3 3 3 4 3 2 3 3 2 2 2 2 1 1 1 1 1 1 1 1 1 0 0 0 0 0 0 1 1 1 1
1 2 3 1 1 1 1 4 4 4 0 0 2 2 3 3 3 4 5 4 4 4 3 3 3 2 2 2 2 1 1 1 1 1 1 1 1 2 1 1 1 1 1 0 0 1 1 1 1
2 2 2 3 0 0 2 7 4 1 1 3 3 3 3 4 4 4 4 4 3 3 3 3 3 2 2 2 2 1 1 1 1 1 1 1 1 2 1 1 1 1 1 0 0 0 1 1 1
2 0 3 4 1 0 2 7 5 2 2 5 5 5 4 4 4 4 3 3 3 3 3 3 2 3 3 2 1 1 1 1 1 1 1 1 1 1 1 1 1 1 0 0 0 0 0 1 1
4 3 3 4 2 0 3 9 10 5 4 6 6 5 5 5 6 4 3 2 2 2 2 3 3 3 2 1 1 0 1 1 1 1 1 1 1 1 1 1 1 1 1 0 0 0 1 1 1
3 3 4 5 3 2 6 10 12 7 5 7 6 5 5 6 4 2 2 2 2 2 2 2 2 2 2 2 1 1 1 1 1 1 1 1 1 2 2 1 1 1 1 1 1 0 1 1 1
2 3 4 4 2 2 5 11 11 7 7 7 7 6 6 5 3 2 2 2 3 3 3 3 3 3 3 2 2 1 1 1 1 1 1 1 2 2 2 2 2 1 1 1 1 0 0 1 0
3 5 4 4 3 2 4 9 6 5 4 5 5 5 5 6 5 4 3 3 3 3 4 4 4 3 3 2 1 1 1 1 0 1 1 1 2 2 2 2 2 2 2 2 2 1 2 1 1
4 4 4 2 1 3 1 7 8 5 5 6 6 5 5 5 5 4 4 3 4 4 4 3 3 3 3 3 3 3 2 2 3 2 2 2 2 2 2 2 2 2 2 2 2 2 2 2 1
3 0 1 1 2 3 1 4 10 3 5 7 6 6 5 5 4 5 5 5 4 3 3 3 3 3 3 3 4 3 3 2 1 1 1 1 1 2 2 2 1 2 2 2 2 2 2 2 2
3 3 3 3 2 4 4 5 9 5 6 5 4 4 4 4 4 4 3 3 3 2 2 2 3 3 3 3 3 4 4 3 2 1 2 1 1 1 2 2 1 2 2 2 2 2 3 3 2
2 4 3 4 2 6 2 4 11 7 6 5 5 5 4 4 4 4 3 3 3 3 3 3 3 3 3 4 4 4 4 4 4 3 3 2 2 2 2 2 2 2 2 2 2 2 2 2 2
3 5 5 4 5 5 2 8 10 5 4 4 4 4 4 3 4 4 4 4 4 4 4 4 4 4 4 4 4 4 4 3 3 3 3 3 3 3 3 3 2 3 2 2 2 2 2 2 2
4 3 3 3 1 4 7 8 10 4 3 3 3 3 4 4 4 4 3 3 3 4 4 5 4 4 4 4 4 3 4 3 3 3 3 2 2 2 2 2 2 3 2 2 2 2 2 2 2
3 5 4 3 3 5 6 6 6 5 4 3 3 4 5 4 4 4 3 2 2 3 3 3 4 4 4 4 4 3 3 4 3 3 3 2 2 2 2 2 3 3 2 2 2 2 2 2 2
3 3 3 3 3 4 5 8 6 5 4 4 5 5 5 4 4 4 3 2 2 2 2 3 3 2 3 3 3 3 3 3 3 3 3 3 3 3 3 3 3 3 3 2 2 2 3 3 3
4 6 7 5 5 4 4 11 3 4 3 4 5 5 4 4 4 3 3 3 3 3 3 3 3 3 4 4 3 3 3 3 3 3 3 3 3 3 3 2 3 3 3 3 3 3 3 4 4
Wind_Direction
354 22 62 56 57 56 237 243 222 254 237 295 42 116 142 148 161 186 309 134 123 138 148 149 142 139 136 132 126 118 110 103 95 92 90 86 83 77 73 71 67 66 66 68 69 70 69 68 67
11 45 55 60 96 186 257 239 225 226 208 115 53 64 76 45 16 86 110 153 126 132 133 138 141 139 136 131 124 120 113 105 98 93 88 85 81 77 72 69 65 62 64 63 62 67 66 67 66
62 56 82 81 137 194 229 231 222 267 54 103 71 51 101 261 309 186 221 145 119 121 123 139 139 139 136 132 127 122 116 109 101 95 88 85 82 76 72 68 65 61 62 62 60 64 65 64 65
77 53 60 89 217 227 227 260 227 250 33 58 110 64 355 350 226 202 132 129 117 115 114 141 137 136 133 131 127 123 116 112 104 96 86 85 82 74 70 65 64 59 58 59 55 57 61 59 60
61 80 80 174 243 252 254 271 208 155 172 56 120 123 289 349 41 110 125 127 122 112 102 131 135 134 132 129 128 125 119 109 100 93 85 83 84 75 69 63 60 57 56 52 47 48 56 55 52
61 74 112 219 244 265 272 264 152 128 186 81 129 137 255 3 88 125 125 122 120 119 103 101 139 135 133 128 126 123 115 105 97 88 77 73 70 75 73 63 54 50 48 43 40 43 54 54 47
107 112 174 208 239 272 277 200 146 168 180 230 166 141 276 310 155 128 118 111 105 106 104 90 93 120 133 129 124 121 112 101 89 77 65 58 51 63 71 57 51 49 47 42 39 35 48 53 43
121 113 162 216 212 252 298 58 116 142 230 310 140 153 223 220 140 111 100 97 101 97 101 99 86 83 87 114 127 120 110 100 80 66 59 48 35 33 44 39 37 42 44 44 38 32 35 41 39
91 91 202 216 199 237 331 50 0 18 71 18 100 204 228 131 124 113 102 94 102 108 97 109 100 89 83 90 106 107 109 97 71 54 62 50 30 20 20 22 33 37 42 41 35 30 29 36 36
92 160 220 220 191 202 278 125 285 41 16 341 325 352 88 127 141 150 158 171 179 184 178 151 136 117 94 85 85 85 83 84 76 67 63 53 36 32 38 32 34 31 35 35 31 30 29 35 30
134 189 221 254 244 192 219 296 259 138 255 239 244 243 148 149 164 179 187 189 194 192 184 181 172 147 128 115 107 96 86 86 85 90 82 69 51 35 35 30 18 17 25 27 21 22 21 21 18
144 237 218 260 297 169 197 207 257 205 228 250 231 188 169 179 192 198 200 200 187 183 199 192 174 159 152 140 139 137 123 125 130 128 113 105 86 55 37 32 10 19 18 21 18 16 14 7 353
174 255 292 288 336 251 112 240 235 255 261 282 131 141 179 196 213 221 214 198 182 188 199 196 179 176 167 153 159 144 173 175 173 161 151 141 145 152 108 43 13 354 0 5 351 356 356 348 338
209 233 290 302 309 314 199 284 259 267 267 225 143 194 210 211 214 213 216 206 197 197 199 193 185 182 164 166 180 184 182 173 156 165 183 165 164 172 185 197 257 304 316 311 294 289 296 304 318
75 28 343 313 267 269 81 303 238 257 211 276 256 238 231 235 223 218 217 212 202 199 193 187 187 167 167 179 187 182 181 161 173 205 190 182 179 179 183 199 239 262 269 310 353 332 328 314 322
52 46 311 298 340 308 135 264 270 282 195 265 271 262 250 249 237 236 230 217 202 190 187 192 187 178 183 186 193 187 176 169 192 215 216 203 195 180 178 202 236 245 236 206 272 322 335 321 314
37 240 250 293 298 87 182 257 280 298 257 264 263 259 255 259 258 250 237 221 203 194 188 186 189 187 197 195 192 188 175 179 192 201 221 224 210 188 175 202 246 232 208 212 254 325 274 292 302
215 218 244 258 287 234 247 262 278 280 257 260 261 262 260 253 253 250 242 225 202 194 182 184 191 190 189 173 147 143 152 195 191 207 225 231 219 198 187 193 225 226 191 230 237 262 300 265 276
175 203 250 261 275 260 254 268 276 278 263 260 257 252 251 254 258 252 243 217 180 176 178 190 193 190 166 161 171 190 222 232 227 226 230 230 231 205 194 210 198 214 205 228 230 236 296 307 294
187 233 262 285 311 259 279 278 274 264 249 242 241 240 243 254 265 253 242 211 195 197 198 196 199 196 189 191 189 192 194 217 224 230 244 238 231 223 208 201 202 215 211 234 251 222 203 281 318
220 212 230 255 329 338 315 296 274 270 255 255 243 235 235 229 234 238 233 226 210 208 207 209 206 200 197 182 140 89 71 48 60 270 253 250 232 224 224 213 199 206 203 217 236 227 189 216 253
242 222 215 238 314 295 357 291 282 273 283 262 253 246 243 237 230 230 228 231 223 220 213 207 205 198 192 172 167 167 182 210 222 230 237 260 240 225 221 213 202 211 216 217 230 226 216 199 226
214 109 159 196 191 290 252 247 282 296 277 269 255 250 247 238 225 224 223 223 227 223 211 206 199 197 191 184 181 183 202 219 222 226 222 245 256 234 224 219 209 218 227 229 226 224 221 215 211
151 78 58 52 85 270 226 204 276 245 237 263 273 266 255 239 227 225 224 218 228 221 207 199 195 205 199 192 191 194 204 209 206 219 220 239 259 254 239 235 224 227 229 234 231 223 219 219 216
103 98 23 349 332 253 214 219 252 249 240 243 266 279 274 241 227 228 224 221 226 221 209 204 201 212 207 199 204 206 208 206 209 215 218 226 242 253 247 239 236 240 234 235 231 225 228 219 214
181 153 169 214 236 275 259 238 254 254 263 269 270 280 285 266 246 240 231 222 222 219 208 204 207 215 209 205 215 215 209 207 218 220 221 223 229 235 236 228 236 240 233 230 220 229 228 216 211
156 192 168 144 200 269 263 275 295 268 279 285 299 305 290 279 267 258 250 230 220 222 214 208 208 213 214 212 215 216 214 213 221 223 226 230 237 241 234 227 234 242 238 228 216 223 230 213 205
166 150 123 150 203 256 278 265 253 269 270 287 293 288 289 297 289 281 268 247 239 230 224 214 210 212 215 212 213 222 220 220 219 219 227 234 241 239 231 237 236 239 238 228 215 217 224 213 216
148 153 155 160 188 197 264 267 225 224 242 266 273 276 278 281 281 279 279 275 275 261 229 220 217 214 219 218 215 219 222 218 213 220 229 228 230 226 225 228 230 233 233 227 216 217 218 212 219
187 187 168 181 224 204 234 268 261 225 256 265 275 282 283 277 276 274 274 278 274 253 235 226 221 221 223 217 212 216 218 212 214 223 232 227 224 226 228 225 232 234 233 228 219 224 223 215 217